Find Starlink 5607

NORAD ID: 55404 Int'l Des: 2023-014 Owner: SPXS Country: US Constellation: starlink operational
LEOCIRCULAR

リアルタイム位置

3D地球を読み込み中...

Starlink 5607について

説明を読み込み中...

次回通過

Passes for default location (London). Set your location on the main map for personalized predictions.

高度履歴

Loading altitude history...

軌道要素

1 55404U 23014P 26121.90439093 -.00000431 00000-0 -28318-4 0 9993
2 55404 69.9989 290.3940 0002769 262.1661 97.9184 14.98339917180028
Epoch: May 1, 2026 • Age: 10 hours

現在のステータス

高度 575.0 km
速度 7.57 km/s
衛星直下点 -6.59°S, 129.18°E
打ち上げ日 Jan 31, 2023
運用期間 3.2 years
タイプ internet

技術仕様

分類 Payload
質量 305.00 kg
乾燥質量 290.00 kg
総質量 305.00 kg
長さ 0.20 m
直径 2.80 m
スパン 9.00 m
形状 Box + pan
製造者 SPXS
バスタイプ Starlink
フェーズステータス In Orbit
所有者/国 SPXS/US

Most Searched